Temp
15 15 15 15 15 15 15 14 14 14 14 15 15 14 14 14 13 13 13 13 13 13 13 12 12 11 10 11 11 11 12 13 13
15 15 15 15 15 15 15 14 15 14 14 15 15 15 14 13 12 12 12 12 12 13 12 12 11 11 10 10 11 11 12 12 13
15 15 15 15 15 15 15 14 14 14 15 15 14 13 13 13 12 11 11 11 11 11 11 10 10 11 10 10 10 11 12 12 13
15 15 15 15 15 15 14 14 14 14 14 14 14 13 13 13 12 11 11 10 11 11 10 10 10 10 9 10 11 12 12 12 12
14 14 15 15 15 15 14 14 14 14 14 14 13 13 13 13 12 11 11 10 10 11 10 9 9 9 10 10 11 12 12 12 12
14 14 15 15 15 15 14 14 13 13 14 14 14 13 13 13 11 11 11 10 10 10 10 9 10 9 10 10 10 11 12 12 12
14 14 15 15 15 14 13 13 13 14 14 13 13 13 13 13 11 10 10 10 10 10 10 10 9 9 9 10 10 10 10 11 12
14 14 14 14 14 14 13 13 13 13 14 13 13 13 12 12 11 10 10 10 9 10 9 9 9 9 9 9 9 9 10 11 11
13 13 13 13 14 14 13 13 13 13 13 13 13 12 12 12 12 11 9 9 9 8 8 9 9 9 9 10 9 9 9 10 11
13 14 14 13 13 13 13 13 13 12 13 13 13 13 12 12 11 10 9 9 9 9 9 9 9 9 9 9 10 9 10 10 10
13 14 13 13 12 12 13 13 12 13 13 13 12 12 12 11 11 10 10 10 8 9 9 9 9 9 10 9 9 9 9 9 9
14 14 13 13 12 12 12 12 12 13 13 13 12 12 12 11 11 10 10 10 10 10 8 9 9 9 9 9 9 9 9 9 9
14 14 13 12 12 12 12 12 12 13 13 13 13 12 11 10 11 11 10 10 10 10 10 10 9 9 9 9 10 9 9 9 9
14 14 14 12 12 12 11 12 12 12 12 12 12 12 11 11 11 11 11 10 10 10 10 9 9 10 9 10 9 10 9 8 9
13 14 14 12 12 12 11 11 11 12 12 12 11 11 11 10 10 10 10 10 10 9 10 10 9 10 9 9 10 10 9 8 8
13 13 13 12 12 12 12 11 11 11 12 12 11 11 10 10 9 9 9 9 9 9 9 9 9 9 9 9 9 9 9 9 9
13 13 13 12 12 11 11 11 11 11 11 11 11 9 9 9 9 8 9 9 9 9 9 7 9 9 9 9 8 8 10 9 10
12 14 13 13 12 11 11 11 11 11 11 11 10 9 9 8 8 8 8 9 9 9 9 8 7 8 8 9 8 8 8 9 8
12 13 14 13 12 12 11 11 11 11 10 10 10 10 9 9 8 8 8 8 9 9 9 8 8 8 8 8 8 8 8 8 7
13 13 13 13 13 12 11 11 11 11 11 10 10 10 10 9 8 7 7 7 8 9 9 9 9 9 9 9 9 9 8 8 7
Height
1511 1518 1520 1523 1522 1526 1528 1529 1528 1530 1531 1533 1537 1540 1541 1541 1541 1543 1543 1544 1545 1544 1543 1542 1543 1542 1541 1542 1541 1541 1541 1541 1541
1510 1514 1517 1522 1525 1526 1530 1530 1530 1532 1533 1535 1538 1541 1543 1542 1542 1543 1544 1546 1547 1546 1545 1544 1544 1544 1544 1544 1544 1545 1544 1544 1544
1510 1511 1517 1521 1524 1526 1530 1530 1531 1532 1535 1537 1539 1542 1543 1544 1543 1544 1544 1545 1547 1547 1546 1545 1545 1546 1545 1545 1547 1548 1548 1548 1547
1508 1511 1515 1519 1523 1524 1528 1531 1532 1533 1535 1538 1540 1542 1543 1544 1544 1544 1546 1546 1547 1547 1546 1546 1546 1547 1547 1548 1549 1550 1551 1551 1550
1507 1510 1513 1517 1520 1524 1527 1532 1533 1534 1536 1537 1540 1541 1543 1544 1545 1545 1547 1546 1546 1547 1547 1547 1547 1548 1549 1551 1553 1553 1554 1554 1554
1505 1508 1511 1515 1517 1522 1526 1531 1534 1535 1536 1538 1541 1541 1543 1543 1545 1545 1548 1547 1548 1548 1549 1549 1549 1550 1551 1553 1555 1556 1556 1555 1556
1501 1505 1509 1513 1516 1521 1524 1529 1533 1534 1536 1537 1540 1541 1543 1543 1544 1546 1548 1549 1549 1548 1549 1551 1551 1551 1553 1555 1556 1557 1557 1557 1558
1502 1504 1506 1511 1515 1519 1524 1526 1533 1534 1536 1537 1539 1541 1543 1543 1544 1546 1548 1549 1549 1550 1550 1551 1551 1552 1554 1555 1557 1558 1558 1559 1560
1499 1501 1503 1508 1513 1517 1525 1526 1532 1535 1537 1538 1540 1542 1543 1544 1544 1545 1547 1550 1550 1551 1551 1552 1552 1554 1555 1556 1557 1558 1559 1561 1562
1493 1499 1502 1507 1510 1516 1523 1528 1530 1534 1537 1539 1540 1542 1544 1545 1545 1545 1549 1550 1551 1552 1554 1554 1554 1556 1558 1558 1560 1559 1560 1562 1564
1492 1493 1501 1503 1511 1513 1522 1527 1530 1532 1537 1539 1540 1543 1544 1546 1547 1548 1550 1552 1552 1554 1555 1556 1558 1559 1560 1560 1561 1562 1562 1562 1565
1489 1492 1499 1502 1509 1514 1519 1526 1530 1533 1537 1540 1541 1544 1546 1548 1549 1551 1552 1553 1555 1557 1557 1557 1559 1560 1560 1561 1562 1562 1563 1564 1565
1485 1490 1496 1501 1507 1513 1517 1523 1529 1531 1534 1538 1541 1544 1547 1549 1550 1552 1553 1554 1556 1557 1557 1558 1561 1562 1561 1562 1562 1564 1564 1565 1566
1479 1485 1492 1499 1504 1509 1515 1520 1526 1529 1532 1536 1541 1544 1547 1549 1550 1552 1554 1555 1556 1557 1557 1558 1562 1563 1563 1563 1564 1564 1566 1566 1567
1473 1479 1486 1494 1501 1506 1512 1517 1523 1529 1532 1536 1541 1544 1547 1549 1551 1552 1553 1554 1555 1557 1557 1558 1562 1564 1565 1565 1565 1565 1567 1569 1569
1466 1472 1480 1489 1496 1500 1507 1513 1520 1526 1530 1533 1539 1543 1546 1549 1550 1551 1552 1553 1554 1556 1557 1558 1560 1563 1565 1566 1567 1567 1568 1569 1569
1459 1465 1473 1481 1489 1496 1501 1507 1514 1521 1525 1527 1532 1539 1545 1546 1548 1549 1550 1551 1552 1554 1555 1558 1560 1562 1565 1567 1568 1568 1568 1570 1570
1451 1457 1466 1474 1481 1488 1495 1501 1507 1514 1520 1523 1524 1533 1536 1540 1544 1546 1548 1549 1550 1551 1553 1556 1559 1562 1564 1567 1569 1570 1570 1571 1572
1443 1449 1459 1466 1473 1481 1488 1496 1502 1509 1513 1519 1522 1523 1526 1533 1539 1542 1544 1547 1548 1550 1552 1554 1557 1560 1563 1566 1569 1570 1572 1573 1573
1436 1442 1451 1459 1466 1475 1481 1489 1496 1503 1507 1511 1514 1519 1523 1527 1529 1532 1537 1543 1546 1549 1551 1553 1556 1559 1562 1565 1568 1570 1572 1573 1575
Wind_Speed
28 27 28 24 23 20 25 25 24 25 25 22 18 16 14 12 12 12 13 14 13 14 12 9 11 16 17 19 19 19 20 21 19
30 30 27 24 20 20 23 25 24 24 22 21 17 17 13 11 13 12 14 15 14 10 9 8 17 16 16 18 21 18 19 19 19
31 31 26 24 22 20 25 27 25 24 20 18 16 13 11 10 7 13 13 16 14 11 8 13 18 16 14 21 19 22 21 21 18
33 29 27 23 20 23 31 29 28 23 20 18 14 12 7 6 12 14 11 13 15 13 12 15 17 16 16 21 24 22 18 19 18
34 31 28 23 21 24 34 30 28 23 20 18 15 13 7 8 12 13 11 14 15 16 14 16 14 17 23 23 22 18 16 18 19
37 30 26 24 23 28 36 32 29 24 22 19 16 11 8 11 14 13 17 12 15 18 19 15 19 16 22 20 17 15 17 19 19
35 31 26 24 24 32 38 34 30 28 24 22 15 13 11 11 13 15 20 16 15 18 21 20 16 15 23 20 18 17 16 19 17
35 32 29 29 30 36 40 36 29 27 26 21 18 16 12 12 15 20 20 17 15 18 20 17 16 18 19 18 17 16 16 18 18
37 34 33 35 34 39 41 36 30 25 23 19 18 17 14 13 15 18 20 17 18 16 18 18 20 20 15 17 13 15 13 17 18
40 36 37 39 38 39 41 37 33 28 23 22 19 18 15 13 15 19 18 14 17 17 20 18 16 20 20 21 16 14 10 13 19
41 39 41 41 41 40 38 39 35 30 27 25 20 18 16 15 15 19 18 14 15 19 16 21 18 21 17 16 16 19 13 19 18
42 40 43 43 42 38 37 40 36 31 27 25 24 17 14 14 15 17 18 18 13 8 13 15 19 12 14 16 14 12 11 16 17
44 41 44 44 42 37 37 40 37 33 33 29 25 19 18 19 17 18 18 13 9 7 9 10 19 12 11 12 12 12 12 15 15
48 45 45 46 45 41 39 38 38 33 31 30 24 23 21 20 20 20 16 13 9 3 4 18 22 18 6 9 12 14 14 13 13
52 48 47 48 48 46 43 39 35 35 33 29 26 23 21 22 21 19 19 16 12 7 7 18 23 20 9 10 12 13 15 13 13
56 51 50 51 51 48 45 42 39 36 37 32 27 24 22 22 22 20 20 19 16 11 10 15 24 22 14 8 10 11 13 11 12
60 54 54 53 51 49 46 47 43 41 40 40 37 23 22 23 23 22 19 16 15 15 16 18 14 20 18 12 8 10 10 11 12
63 56 56 55 53 51 50 50 48 45 42 43 38 22 13 28 24 24 23 20 17 20 21 21 18 18 16 15 13 9 6 10 14
62 59 58 56 55 51 52 53 51 51 48 45 37 27 21 24 20 25 24 20 20 23 23 22 21 19 18 17 15 13 8 7 14
61 62 60 58 56 51 53 54 55 55 53 51 44 34 17 28 23 27 29 24 24 23 24 22 21 19 16 16 16 16 13 8 13
Wind_Direction
161 160 158 156 150 160 160 145 146 144 138 132 133 130 127 131 134 138 120 115 111 109 108 99 81 79 79 86 83 82 91 92 88
168 168 170 161 164 162 166 158 158 152 142 139 143 144 145 140 134 124 136 125 121 123 105 88 91 90 89 92 87 88 83 96 89
176 170 171 175 185 185 178 167 163 159 145 147 150 153 160 181 181 126 129 131 131 123 106 94 98 96 84 104 92 96 87 86 84
182 178 176 175 182 177 174 171 165 157 154 155 155 154 155 160 148 137 133 125 130 129 118 95 102 101 91 98 100 94 99 97 89
185 178 178 180 182 175 171 171 166 159 163 162 155 154 160 160 149 147 140 131 136 114 116 107 107 105 103 100 96 99 108 100 94
181 183 184 183 182 176 172 174 170 162 164 157 160 154 162 147 149 146 132 129 127 121 114 105 98 106 109 110 108 111 115 107 103
184 185 183 181 181 174 173 176 172 172 167 160 167 166 147 143 150 132 137 138 127 129 117 120 116 108 114 115 112 110 124 115 113
188 183 176 173 171 169 173 176 176 178 169 171 167 159 144 140 150 145 141 140 128 121 131 118 119 107 116 117 120 111 112 123 116
188 181 176 173 171 170 174 176 176 177 169 171 166 161 144 137 142 150 142 134 130 126 125 113 113 106 108 99 112 119 121 130 125
188 184 180 177 172 171 176 177 180 180 180 176 180 162 144 133 129 122 117 127 135 125 123 118 118 110 118 112 96 93 120 131 137
191 186 184 179 176 170 176 178 182 179 178 172 164 161 142 135 131 125 127 123 123 123 124 130 123 119 120 124 123 115 106 114 126
195 191 185 180 176 174 176 182 184 180 188 191 173 160 156 148 145 147 143 139 128 122 127 134 127 134 131 124 119 127 126 115 117
196 195 187 181 178 177 182 182 180 185 183 176 176 173 170 161 162 161 159 166 172 195 210 161 132 136 129 128 138 120 110 132 124
199 195 189 182 178 181 183 184 188 181 176 173 176 175 176 173 169 174 182 183 190 185 219 151 139 149 164 123 129 137 119 112 133
200 196 191 184 184 185 187 186 191 190 186 182 180 180 184 186 181 187 191 203 215 231 191 151 144 143 164 137 130 128 129 129 124
202 199 193 188 188 190 194 188 190 191 191 186 183 185 191 196 195 199 211 219 221 223 207 161 162 159 155 150 130 135 143 147 134
205 199 196 192 193 192 192 187 186 190 194 188 178 163 179 196 198 203 219 220 225 215 198 165 165 168 160 164 147 137 139 143 138
203 204 199 196 197 196 191 190 190 187 187 191 178 166 189 186 199 211 224 228 219 196 191 171 169 163 167 167 165 155 136 138 135
205 202 201 199 199 199 195 195 195 192 188 191 188 188 190 182 188 208 220 221 203 186 181 179 179 180 176 173 169 168 176 158 147
210 206 204 201 199 201 198 196 197 201 196 196 195 203 196 190 185 190 200 207 203 198 190 183 185 185 185 180 178 181 181 183 164